sat.trackr.live / text

‹ back to catalog

STARLINK-35284

NORAD 65741 · 2025-216H

PAYLOAD ACTIVE UNKNOWN

§ Identity

Operator
Country
US
Launch date
2025-09-25
Launch site
AFETR
Launch vehicle
Mass (kg)
RCS (m²)

Purposes: comms

External: N2YO · Heavens-Above · Gunter

§ Orbital elements

Epoch: 2026-09-20T23:05:25.406304Z

Period
93.85 min
Inclination
53.1552°
Eccentricity
0.0001217
Mean motion
15.34402550 rev/d
Perigee alt
461.9 km
Apogee alt
463.5 km
Semi-major
6,840.8 km
B*
6.6702e-4
RAAN
143.5405°
Arg perigee
94.6693°
Mean anomaly
265.4449°
Rev number
5,647

§ Raw data

STARLINK-352841 65741U 25216H   26263.96209961  .00022229  00000+0  66702-3 0  99902 65741  53.1552 143.5405 0001217  94.6693 265.4449 15.34402550 56471

JSON: /api/v1/satellites/65741 · /tle

For live sub-satellite position, see the globe view (requires WebGL).

§ Visibility from observer

Set your observer location to see the next 7 days of passes ≥ 10°. The values pass through the URL so the page stays shareable.

No JS? Fill the form by hand. The geolocation button needs JavaScript.